Location: Mahannah Oil Field
(37.4664°N, 96.6003°W)
Time: 01:14:35
(UTC+00:00)

Tiros 1 despin weight - Pass Details

Date: 25 January 2021
Orbit: 593 x 642 km, 48.2° (Epoch: 25 February)

Event Time Altitude Azimuth Distance (km) Brightness Sun altitude
Rises 21:56:31 0° 279° (W) 2,886 ? 17.1°
Reaches altitude 10° 21:59:13 10° 294° (WNW) 1,972 ? 16.7°
Maximum altitude 22:02:53 24° 348° (NNW) 1,283 ? 16.1°
Drops below altitude 10° 22:06:31 10° 42° (NE) 1,950 ? 15.6°
Sets 22:09:10 0° 57° (ENE) 2,846 ? 15.2°
